GIA261 WIII-WSSS

Flight info

Callsign GIA261
Flight time N/A
Altitude 36000
Route DOLTA2B/07R DOLTA G579 REPOV REPOV2B
Aircraft A339/H-SADE1E2E3GHIJ3J5M1P2RWXY/LB2D1

Departure

Time N/A
Airport Soekarno-Hatta International Airport (WIII)

Arrival

Time 2026-05-07 17:12
Airport Singapore Changi Airport (WSSS)
Time Latitude Longitude Altitude Speed Heading
2026-05-07 16:24 -4.07313 105.32584 35884 ft 459 kts 332°
2026-05-07 16:25 -4.04422 105.30944 35885 ft 459 kts 332°
2026-05-07 16:25 -3.98927 105.27825 35885 ft 459 kts 332°
2026-05-07 16:26 -3.93359 105.24665 35885 ft 459 kts 332°
2026-05-07 16:26 -3.88393 105.21855 35885 ft 459 kts 332°
2026-05-07 16:27 -3.82935 105.18787 35885 ft 459 kts 332°
2026-05-07 16:28 -3.73099 105.13254 35885 ft 459 kts 332°
2026-05-07 16:29 -3.56670 105.04008 35885 ft 458 kts 332°
2026-05-07 16:30 -3.51195 105.00928 35885 ft 457 kts 332°
2026-05-07 16:30 -3.45945 104.97974 35885 ft 457 kts 332°
2026-05-07 16:31 -3.40481 104.94900 35885 ft 457 kts 332°
2026-05-07 16:31 -3.35504 104.92100 35885 ft 456 kts 332°
2026-05-07 16:32 -3.30093 104.89058 35885 ft 456 kts 332°
2026-05-07 16:32 -3.24662 104.86005 35885 ft 455 kts 332°
2026-05-07 16:33 -3.19239 104.82956 35885 ft 455 kts 332°
2026-05-07 16:33 -3.13822 104.79911 35885 ft 455 kts 332°
2026-05-07 16:34 -3.08894 104.77142 35885 ft 455 kts 332°
2026-05-07 16:34 -3.03832 104.74297 35885 ft 455 kts 332°
2026-05-07 16:35 -2.98557 104.71334 35884 ft 456 kts 332°
2026-05-07 16:35 -2.93564 104.68607 35884 ft 456 kts 335°
2026-05-07 16:36 -2.88408 104.66320 35884 ft 455 kts 340°
2026-05-07 16:36 -2.82335 104.64366 35884 ft 455 kts 347°
2026-05-07 16:37 -2.76303 104.63090 35885 ft 455 kts 351°
2026-05-07 16:37 -2.70293 104.61977 35885 ft 455 kts 351°
2026-05-07 16:38 -2.29044 104.54237 35884 ft 454 kts 351°
2026-05-07 16:38 -1.91425 104.47102 35894 ft 454 kts 351°
2026-05-07 16:39 -1.48532 104.39014 35892 ft 454 kts 351°
2026-05-07 16:39 -1.07681 104.31282 35878 ft 453 kts 351°
2026-05-07 16:40 -0.87614 104.27502 34963 ft 453 kts 351°
2026-05-07 16:40 -0.84542 104.26923 34666 ft 448 kts 352°
2026-05-07 16:40 -0.61399 104.22572 31688 ft 447 kts 351°
2026-05-07 16:40 -0.55919 104.21538 31107 ft 446 kts 351°
2026-05-07 16:41 -0.52887 104.20941 30305 ft 453 kts 350°
2026-05-07 16:41 -0.49797 104.20324 29527 ft 458 kts 350°
2026-05-07 16:41 -0.46749 104.19713 29016 ft 456 kts 350°
2026-05-07 16:41 -0.43683 104.19100 28483 ft 455 kts 350°
2026-05-07 16:42 -0.39773 104.18321 27789 ft 454 kts 350°
2026-05-07 16:42 -0.33922 104.17157 27036 ft 449 kts 349°
2026-05-07 16:42 -0.27723 104.15926 26475 ft 440 kts 349°
2026-05-07 16:42 -0.22943 104.14977 26053 ft 433 kts 349°
2026-05-07 16:43 -0.19998 104.14392 25664 ft 429 kts 349°
2026-05-07 16:43 -0.17116 104.13821 25192 ft 428 kts 349°
2026-05-07 16:43 -0.14188 104.13240 24677 ft 428 kts 349°
2026-05-07 16:43 -0.11338 104.12675 24161 ft 428 kts 349°
2026-05-07 16:44 -0.08602 104.12132 23659 ft 428 kts 348°
2026-05-07 16:44 -0.05993 104.11614 23180 ft 427 kts 348°
2026-05-07 16:44 -0.02845 104.10990 22596 ft 427 kts 348°
2026-05-07 16:44 0.00022 104.10421 22063 ft 426 kts 348°
2026-05-07 16:45 0.02780 104.09874 21598 ft 424 kts 348°
2026-05-07 16:45 0.05710 104.09292 21170 ft 420 kts 348°
2026-05-07 16:45 0.08441 104.08750 20795 ft 416 kts 348°
2026-05-07 16:45 0.11137 104.08215 20434 ft 412 kts 348°
2026-05-07 16:46 0.13214 104.07803 20158 ft 408 kts 347°
2026-05-07 16:46 0.16134 104.07224 19771 ft 404 kts 347°
2026-05-07 16:46 0.18696 104.06715 19436 ft 399 kts 347°
2026-05-07 16:46 0.19903 104.06476 19277 ft 397 kts 347°
2026-05-07 16:47 0.22369 104.05987 19154 ft 387 kts 347°
2026-05-07 16:47 0.24237 104.05617 19135 ft 377 kts 347°
2026-05-07 16:47 0.29383 104.04597 18911 ft 357 kts 347°
2026-05-07 16:48 0.32288 104.04020 18509 ft 354 kts 347°
2026-05-07 16:48 0.34673 104.03547 18203 ft 351 kts 347°
2026-05-07 16:48 0.37058 104.03073 17903 ft 347 kts 347°
2026-05-07 16:48 0.39345 104.02620 17616 ft 344 kts 347°
2026-05-07 16:49 0.41615 104.02169 17334 ft 341 kts 346°
2026-05-07 16:49 0.43970 104.01702 17039 ft 338 kts 346°
2026-05-07 16:49 0.46218 104.01257 16750 ft 335 kts 346°
2026-05-07 16:49 0.48435 104.00817 16463 ft 332 kts 346°
2026-05-07 16:50 0.50652 104.00377 16182 ft 329 kts 346°
2026-05-07 16:50 0.52880 103.99935 15900 ft 326 kts 346°
2026-05-07 16:50 0.55020 103.99511 15628 ft 324 kts 346°
2026-05-07 16:50 0.57005 103.99117 15378 ft 321 kts 346°
2026-05-07 16:51 0.59066 103.98709 15117 ft 319 kts 346°
2026-05-07 16:51 0.61254 103.98275 14839 ft 316 kts 346°
2026-05-07 16:51 0.63245 103.97881 14586 ft 313 kts 346°
2026-05-07 16:51 0.65494 103.97434 14298 ft 311 kts 346°
2026-05-07 16:52 0.67551 103.97027 14170 ft 303 kts 346°
2026-05-07 16:52 0.69571 103.96628 14166 ft 291 kts 346°
2026-05-07 16:52 0.71522 103.96261 14161 ft 281 kts 351°
2026-05-07 16:52 0.73427 103.96316 14135 ft 284 kts
2026-05-07 16:53 0.75311 103.96925 13937 ft 287 kts 20°
2026-05-07 16:53 0.77162 103.97714 13701 ft 287 kts 21°
2026-05-07 16:53 0.78974 103.98515 13465 ft 285 kts 21°
2026-05-07 16:53 0.80765 103.99301 13228 ft 284 kts 21°
2026-05-07 16:54 0.82563 104.00079 12991 ft 283 kts 21°
2026-05-07 16:54 0.84345 104.00843 12755 ft 282 kts 20°
2026-05-07 16:54 0.86127 104.01602 12519 ft 280 kts 20°
2026-05-07 16:54 0.87862 104.02338 12290 ft 279 kts 20°
2026-05-07 16:55 0.89660 104.03100 12051 ft 278 kts 20°
2026-05-07 16:55 0.91390 104.03832 11819 ft 277 kts 20°
2026-05-07 16:55 0.93124 104.04565 11589 ft 275 kts 20°
2026-05-07 16:55 0.94844 104.05292 11362 ft 274 kts 20°
2026-05-07 16:56 0.96586 104.06028 11129 ft 273 kts 20°
2026-05-07 16:56 0.98289 104.06748 10901 ft 272 kts 20°
2026-05-07 16:56 1.01648 104.08169 10451 ft 269 kts 20°
2026-05-07 16:57 1.03327 104.08878 10225 ft 268 kts 20°
2026-05-07 16:57 1.05045 104.09605 9993 ft 267 kts 20°
2026-05-07 16:57 1.06706 104.10307 9768 ft 266 kts 20°
2026-05-07 16:57 1.08343 104.10998 9543 ft 265 kts 20°
2026-05-07 16:58 1.10021 104.11708 9313 ft 263 kts 20°
2026-05-07 16:58 1.11390 104.12287 9124 ft 262 kts 20°
2026-05-07 16:58 1.13111 104.13015 8885 ft 261 kts 20°
2026-05-07 16:58 1.14758 104.13713 8656 ft 260 kts 20°
2026-05-07 16:59 1.16376 104.14403 8428 ft 259 kts 20°
2026-05-07 16:59 1.18005 104.15097 8197 ft 258 kts 20°
2026-05-07 16:59 1.19594 104.15775 7972 ft 257 kts 21°
2026-05-07 16:59 1.21267 104.16489 7721 ft 253 kts 21°
2026-05-07 17:00 1.22835 104.17158 7502 ft 247 kts 21°
2026-05-07 17:00 1.24091 104.17693 7324 ft 242 kts 21°
2026-05-07 17:00 1.25566 104.18322 7123 ft 240 kts 21°
2026-05-07 17:00 1.27020 104.18941 6906 ft 238 kts 21°
2026-05-07 17:01 1.28482 104.19565 6692 ft 235 kts 21°
2026-05-07 17:01 1.29927 104.20180 6482 ft 233 kts 21°
2026-05-07 17:01 1.31299 104.20764 6290 ft 228 kts 21°
2026-05-07 17:01 1.32723 104.21163 6066 ft 221 kts
2026-05-07 17:02 1.34223 104.21081 5847 ft 214 kts 350°
2026-05-07 17:02 1.35646 104.20792 5641 ft 209 kts 348°
2026-05-07 17:02 1.37038 104.20477 5420 ft 205 kts 347°
2026-05-07 17:02 1.38413 104.20169 5189 ft 202 kts 347°
2026-05-07 17:03 1.39760 104.19871 4986 ft 198 kts 347°
2026-05-07 17:03 1.41058 104.19587 4808 ft 193 kts 347°
2026-05-07 17:03 1.42300 104.19319 4648 ft 187 kts 347°
2026-05-07 17:03 1.43583 104.19043 4486 ft 182 kts 346°
2026-05-07 17:04 1.44810 104.18779 4344 ft 183 kts 346°
2026-05-07 17:04 1.46032 104.18516 4191 ft 183 kts 346°
2026-05-07 17:04 1.47266 104.18250 4031 ft 182 kts 346°
2026-05-07 17:04 1.48496 104.17985 3907 ft 181 kts 347°
2026-05-07 17:05 1.49704 104.17725 3915 ft 182 kts 347°
2026-05-07 17:05 1.50846 104.17256 3906 ft 180 kts 318°
2026-05-07 17:05 1.51554 104.16263 3870 ft 176 kts 284°
2026-05-07 17:05 1.51611 104.15108 3664 ft 171 kts 254°
2026-05-07 17:06 1.51253 104.13992 3479 ft 170 kts 247°
2026-05-07 17:06 1.50834 104.12898 3297 ft 171 kts 246°
2026-05-07 17:06 1.50438 104.11864 3131 ft 172 kts 247°
2026-05-07 17:06 1.50022 104.10748 2956 ft 173 kts 248°
2026-05-07 17:07 1.49657 104.09746 2806 ft 171 kts 249°
2026-05-07 17:07 1.49281 104.08699 2633 ft 162 kts 249°
2026-05-07 17:07 1.48917 104.07676 2501 ft 156 kts 249°
2026-05-07 17:07 1.48559 104.06669 2504 ft 158 kts 250°
2026-05-07 17:08 1.48192 104.05634 2499 ft 158 kts 250°
2026-05-07 17:08 1.47667 104.04863 2471 ft 157 kts 218°
2026-05-07 17:08 1.46757 104.04307 2288 ft 156 kts 204°
2026-05-07 17:08 1.45787 104.03899 2078 ft 155 kts 201°
2026-05-07 17:09 1.44815 104.03522 1867 ft 152 kts 201°
2026-05-07 17:09 1.44054 104.03220 1694 ft 147 kts 201°
2026-05-07 17:09 1.43180 104.02859 1504 ft 141 kts 202°
2026-05-07 17:09 1.42269 104.02473 1330 ft 142 kts 202°
2026-05-07 17:10 1.41422 104.02113 1166 ft 142 kts 202°
2026-05-07 17:10 1.40547 104.01743 991 ft 141 kts 202°
2026-05-07 17:10 1.39660 104.01358 808 ft 141 kts 203°
2026-05-07 17:10 1.38770 104.00967 598 ft 140 kts 202°
2026-05-07 17:11 1.37892 104.00592 416 ft 140 kts 201°
2026-05-07 17:11 1.37002 104.00228 244 ft 140 kts 201°
2026-05-07 17:11 1.36176 103.99891 86 ft 138 kts 201°
2026-05-07 17:11 1.35304 103.99535 45 ft 123 kts 201°
2026-05-07 17:12 1.34727 103.99285 46 ft 79 kts 204°
2026-05-07 17:12 1.34370 103.99129 44 ft 45 kts 202°
2026-05-07 17:12 1.34109 103.99004 41 ft 32 kts 221°
2026-05-07 17:12 1.34010 103.98885 38 ft 19 kts 244°
2026-05-07 17:13 1.34036 103.98772 38 ft 16 kts 292°
2026-05-07 17:13 1.34112 103.98725 39 ft 14 kts 21°
2026-05-07 17:13 1.34202 103.98765 41 ft 14 kts 24°
2026-05-07 17:13 1.34299 103.98807 40 ft 15 kts 23°
2026-05-07 17:14 1.34397 103.98850 42 ft 14 kts 24°
2026-05-07 17:14 1.34489 103.98889 44 ft 14 kts 23°
2026-05-07 17:14 1.34574 103.98925 47 ft 12 kts 23°
2026-05-07 17:14 1.34648 103.98955 48 ft 12 kts 22°
2026-05-07 17:15 1.34729 103.98988 50 ft 11 kts 21°
2026-05-07 17:15 1.34796 103.99016 52 ft 10 kts 22°
2026-05-07 17:15 1.34861 103.99024 54 ft 9 kts 334°
2026-05-07 17:15 1.34912 103.98990 55 ft 8 kts 330°
2026-05-07 17:16 1.34966 103.98972 57 ft 8 kts 350°
2026-05-07 17:16 1.35009 103.98994 57 ft 8 kts 69°
2026-05-07 17:16 1.35017 103.99056 55 ft 4 kts 83°
2026-05-07 17:16 1.35017 103.99058 55 ft 0 kts 82°